Location: Unspecified
(41.1637°N, 24.2901°E)
Time: 15:30:38
(UTC+01:00)

ISS - Pass Details

Date: 28 November 2020
Orbit: 418 x 421 km, 51.6° (Epoch: 29 November)

Event Time Altitude Azimuth Distance (km) Brightness Sun altitude
Rises 16:36:18 0° 281° (W) 2,360 1.1 -7.8°
Reaches altitude 10° 16:38:54 10° 302° (WNW) 1,497 -0.4 -8.2°
Maximum altitude 16:41:14 17° 346° (NNW) 1,128 -1.6 -8.6°
Drops below altitude 10° 16:43:35 10° 30° (NNE) 1,500 -1.4 -9.0°
Enters shadow 16:43:57 - 35° (NE) 1,607 -1.3 -9.1°
